UAE7 EGLL-OMDB

Flight info

Callsign UAE7
Flight time 7h 9m
Altitude 39000
Route DET L6 DVR UL9 KONAN UL607 KOK DCT REMBA DCT LIRSU DCT KRH DCT UTABA DCT MOMUK DCT GEDSO DCT VEKEN DCT MSR DCT PINDO DCT PAXIS Y707 OBRAN L321 REXUM M872 EGVED/N0489F410 M872 BDB Y214 RAPMA DCT KUVSO DCT KATIT DCT PEKEM M628 RIGIL G783 ELUDA/N0465F350 G783 ASPED Q308 KIPOK Q568 IMPED
Aircraft A388/J-SADE2E3FGHIJ3J4J5M1RWXY/LB1D1

Departure

Time 2026-05-07 12:10
Airport London Heathrow Airport (EGLL)

Arrival

Time 2026-05-07 19:20
Airport Dubai International Airport (OMDB)
Time Latitude Longitude Altitude Speed Heading
2026-05-07 11:46 51.47015 -0.46541 96 ft 0 kts 57°
2026-05-07 11:55 51.47015 -0.46544 96 ft 0 kts 72°
2026-05-07 11:55 51.47014 -0.46545 96 ft 1 kts 72°
2026-05-07 11:55 51.47011 -0.46557 98 ft 2 kts 63°
2026-05-07 11:55 51.47003 -0.46578 96 ft 2 kts 57°
2026-05-07 11:56 51.46995 -0.46600 95 ft 2 kts 66°
2026-05-07 11:56 51.46994 -0.46624 93 ft 2 kts 101°
2026-05-07 11:56 51.47003 -0.46645 94 ft 2 kts 134°
2026-05-07 11:56 51.47010 -0.46653 96 ft 0 kts 146°
2026-05-07 12:03 51.47004 -0.46648 100 ft 3 kts 161°
2026-05-07 12:03 51.46957 -0.46615 97 ft 11 kts 150°
2026-05-07 12:04 51.46881 -0.46537 98 ft 14 kts 147°
2026-05-07 12:04 51.46796 -0.46455 99 ft 11 kts 174°
2026-05-07 12:04 51.46757 -0.46497 97 ft 7 kts 246°
2026-05-07 12:04 51.46752 -0.46571 97 ft 8 kts 270°
2026-05-07 12:05 51.46751 -0.46675 97 ft 11 kts 267°
2026-05-07 12:05 51.46749 -0.46803 96 ft 13 kts 270°
2026-05-07 12:05 51.46749 -0.46954 97 ft 14 kts 270°
2026-05-07 12:05 51.46749 -0.47123 96 ft 16 kts 268°
2026-05-07 12:06 51.46746 -0.47305 97 ft 17 kts 269°
2026-05-07 12:06 51.46746 -0.47495 96 ft 18 kts 270°
2026-05-07 12:06 51.46745 -0.47694 95 ft 18 kts 266°
2026-05-07 12:06 51.46745 -0.47893 97 ft 18 kts 272°
2026-05-07 12:07 51.46744 -0.48093 96 ft 18 kts 268°
2026-05-07 12:07 51.46741 -0.48298 97 ft 19 kts 268°
2026-05-07 12:07 51.46738 -0.48508 96 ft 19 kts 269°
2026-05-07 12:07 51.46721 -0.48704 99 ft 15 kts 230°
2026-05-07 12:08 51.46638 -0.48749 98 ft 13 kts 195°
2026-05-07 12:08 51.46548 -0.48779 97 ft 12 kts 168°
2026-05-07 12:08 51.46484 -0.48707 97 ft 11 kts 114°
2026-05-07 12:08 51.46481 -0.48613 99 ft 0 kts 90°
2026-05-07 12:09 51.46480 -0.48468 97 ft 46 kts 91°
2026-05-07 12:09 51.46479 -0.47556 94 ft 116 kts 90°
2026-05-07 12:10 51.46485 -0.45984 97 ft 162 kts 90°
2026-05-07 12:10 51.46503 -0.44113 432 ft 168 kts 91°
2026-05-07 12:10 51.46528 -0.42241 932 ft 170 kts 89°
2026-05-07 12:10 51.46278 -0.40384 1569 ft 171 kts 121°
2026-05-07 12:11 51.45584 -0.38846 2193 ft 176 kts 130°
2026-05-07 12:11 51.44788 -0.37228 2479 ft 193 kts 127°
2026-05-07 12:11 51.44058 -0.35316 2641 ft 211 kts 116°
2026-05-07 12:11 51.43488 -0.32991 2954 ft 235 kts 108°
2026-05-07 12:12 51.43032 -0.30356 3369 ft 257 kts 104°
2026-05-07 12:12 51.42624 -0.27508 4069 ft 264 kts 103°
2026-05-07 12:12 51.42242 -0.24636 4819 ft 271 kts 102°
2026-05-07 12:12 51.41852 -0.21668 5639 ft 273 kts 103°
2026-05-07 12:13 51.41455 -0.18697 6520 ft 274 kts 103°
2026-05-07 12:13 51.41049 -0.15707 7309 ft 276 kts 103°
2026-05-07 12:13 51.40635 -0.12687 8127 ft 279 kts 103°
2026-05-07 12:13 51.40217 -0.09661 8944 ft 280 kts 103°
2026-05-07 12:14 51.39792 -0.06600 9761 ft 283 kts 103°
2026-05-07 12:14 51.39363 -0.03497 10412 ft 290 kts 103°
2026-05-07 12:14 51.38913 -0.00269 10612 ft 311 kts 103°
2026-05-07 12:14 51.38426 0.03219 10796 ft 331 kts 103°
2026-05-07 12:15 51.37919 0.06858 11269 ft 339 kts 103°
2026-05-07 12:15 51.37400 0.10573 11911 ft 343 kts 103°
2026-05-07 12:15 51.36875 0.14322 12554 ft 346 kts 103°
2026-05-07 12:15 51.36345 0.18097 13211 ft 349 kts 103°
2026-05-07 12:16 51.35809 0.21903 13858 ft 353 kts 103°
2026-05-07 12:16 51.35264 0.25753 14418 ft 356 kts 103°
2026-05-07 12:16 51.34721 0.29589 14961 ft 360 kts 104°
2026-05-07 12:16 51.34164 0.33510 15500 ft 364 kts 104°
2026-05-07 12:17 51.33599 0.37474 16068 ft 367 kts 104°
2026-05-07 12:17 51.33028 0.41470 16587 ft 371 kts 104°
2026-05-07 12:17 51.32449 0.45516 16966 ft 375 kts 104°
2026-05-07 12:17 51.31864 0.49592 17485 ft 379 kts 104°
2026-05-07 12:18 51.31269 0.53725 18035 ft 382 kts 104°
2026-05-07 12:18 51.30671 0.57874 18518 ft 385 kts 104°
2026-05-07 12:18 51.30002 0.62024 18986 ft 387 kts 108°
2026-05-07 12:18 51.29230 0.66165 19447 ft 390 kts 108°
2026-05-07 12:19 51.28475 0.70277 19910 ft 392 kts 107°
2026-05-07 12:19 51.27707 0.74479 20364 ft 395 kts 107°
2026-05-07 12:19 51.26938 0.78685 20821 ft 398 kts 108°
2026-05-07 12:19 51.26157 0.82939 21284 ft 401 kts 108°
2026-05-07 12:20 51.25368 0.87223 21728 ft 404 kts 108°
2026-05-07 12:20 51.24584 0.91464 22172 ft 406 kts 108°
2026-05-07 12:20 51.23781 0.95802 22638 ft 409 kts 108°
2026-05-07 12:20 51.22971 1.00162 23050 ft 412 kts 108°
2026-05-07 12:21 51.22154 1.04557 23473 ft 415 kts 108°
2026-05-07 12:21 51.21330 1.08979 23866 ft 417 kts 108°
2026-05-07 12:21 51.20500 1.13416 24222 ft 419 kts 108°
2026-05-07 12:21 51.19664 1.17883 24600 ft 421 kts 108°
2026-05-07 12:22 51.18820 1.22373 24965 ft 424 kts 108°
2026-05-07 12:22 51.17971 1.26883 25340 ft 426 kts 108°
2026-05-07 12:22 51.17117 1.31409 25734 ft 428 kts 108°
2026-05-07 12:22 51.16362 1.36022 26116 ft 432 kts 101°
2026-05-07 12:23 51.16001 1.40724 26528 ft 435 kts 94°
2026-05-07 12:23 51.15809 1.45551 26918 ft 438 kts 95°
2026-05-07 12:23 51.15587 1.50396 27355 ft 441 kts 95°
2026-05-07 12:23 51.15350 1.55287 27789 ft 444 kts 95°
2026-05-07 12:24 51.15107 1.60191 28216 ft 446 kts 95°
2026-05-07 12:24 51.14861 1.65141 28657 ft 449 kts 95°
2026-05-07 12:24 51.14613 1.70113 29099 ft 452 kts 95°
2026-05-07 12:24 51.14365 1.75053 29522 ft 455 kts 95°
2026-05-07 12:25 51.14111 1.80086 29954 ft 458 kts 95°
2026-05-07 12:25 51.13852 1.85170 30357 ft 461 kts 95°
2026-05-07 12:25 51.13590 1.90270 30731 ft 464 kts 96°
2026-05-07 12:25 51.13324 1.95404 31074 ft 468 kts 96°
2026-05-07 12:26 51.13054 2.00578 31468 ft 470 kts 96°
2026-05-07 12:26 51.12779 2.05781 31843 ft 473 kts 96°
2026-05-07 12:26 51.12501 2.11009 32208 ft 476 kts 96°
2026-05-07 12:26 51.12219 2.16279 32573 ft 479 kts 96°
2026-05-07 12:27 51.11933 2.21563 32921 ft 481 kts 96°
2026-05-07 12:27 51.11646 2.26813 33285 ft 484 kts 96°
2026-05-07 12:27 51.11352 2.32166 33648 ft 487 kts 96°
2026-05-07 12:27 51.11053 2.37549 34014 ft 490 kts 96°
2026-05-07 12:28 51.10750 2.42962 34350 ft 492 kts 96°
2026-05-07 12:28 51.10443 2.48398 34636 ft 495 kts 96°
2026-05-07 12:28 51.10133 2.53849 35029 ft 495 kts 96°
2026-05-07 12:28 51.09821 2.59293 35437 ft 495 kts 96°
2026-05-07 12:29 51.09403 2.64727 35830 ft 494 kts 101°
2026-05-07 12:29 51.08644 2.69972 36229 ft 493 kts 107°
2026-05-07 12:29 51.07663 2.75194 36621 ft 493 kts 107°
2026-05-07 12:29 51.06708 2.80423 37021 ft 493 kts 107°
2026-05-07 12:30 51.05761 2.85664 37430 ft 493 kts 107°
2026-05-07 12:30 51.04813 2.90899 37819 ft 493 kts 107°
2026-05-07 12:30 51.03864 2.96118 38210 ft 492 kts 107°
2026-05-07 12:30 51.02909 3.01341 38596 ft 492 kts 107°
2026-05-07 12:31 51.01951 3.06561 38915 ft 492 kts 107°
2026-05-07 12:31 51.00988 3.11790 39078 ft 496 kts 107°
2026-05-07 12:31 51.00024 3.17007 39070 ft 499 kts 107°
2026-05-07 12:32 50.98078 3.27499 39068 ft 495 kts 108°
2026-05-07 12:32 50.96120 3.37993 39067 ft 497 kts 108°
2026-05-07 12:33 50.93164 3.53727 39067 ft 497 kts 108°
2026-05-07 12:33 50.91194 3.64143 39068 ft 497 kts 108°
2026-05-07 12:34 50.89204 3.74605 39066 ft 497 kts 108°
2026-05-07 12:34 50.87202 3.85070 39064 ft 497 kts 108°
2026-05-07 12:35 50.85190 3.95531 39066 ft 497 kts 108°
2026-05-07 12:35 50.83180 4.05921 39072 ft 497 kts 108°
2026-05-07 12:36 50.81162 4.16300 39071 ft 497 kts 108°
2026-05-07 12:36 50.79126 4.26710 39068 ft 497 kts 108°
2026-05-07 12:37 50.77075 4.37144 39070 ft 497 kts 108°
2026-05-07 12:37 50.75014 4.47571 39072 ft 497 kts 108°
2026-05-07 12:38 50.72956 4.57931 39075 ft 498 kts 109°
2026-05-07 12:38 50.70874 4.68351 39067 ft 498 kts 109°
2026-05-07 12:39 50.68780 4.78774 39068 ft 498 kts 109°
2026-05-07 12:39 50.66673 4.89092 39066 ft 497 kts 111°
2026-05-07 12:40 50.63935 4.99077 39062 ft 496 kts 117°
2026-05-07 12:40 50.60967 5.08876 39063 ft 496 kts 116°
2026-05-07 12:41 50.58011 5.18693 39057 ft 496 kts 116°
2026-05-07 12:41 50.55040 5.28497 39057 ft 496 kts 117°
2026-05-07 12:42 50.52079 5.38220 39053 ft 497 kts 117°
2026-05-07 12:42 50.49090 5.47997 39057 ft 497 kts 117°
2026-05-07 12:43 50.46084 5.57790 39059 ft 498 kts 117°
2026-05-07 12:43 50.43068 5.67577 39066 ft 499 kts 117°
2026-05-07 12:44 50.40037 5.77372 39057 ft 499 kts 117°
2026-05-07 12:44 50.37022 5.87077 39059 ft 499 kts 117°
2026-05-07 12:45 50.33982 5.96823 39042 ft 498 kts 117°
2026-05-07 12:45 50.30932 6.06565 39037 ft 498 kts 117°
2026-05-07 12:46 50.27876 6.16285 39034 ft 499 kts 117°
2026-05-07 12:46 50.24828 6.25943 39025 ft 499 kts 117°
2026-05-07 12:47 50.21750 6.35656 39021 ft 499 kts 117°
2026-05-07 12:47 50.18405 6.45107 39001 ft 497 kts 124°
2026-05-07 12:48 50.14214 6.53657 39009 ft 496 kts 132°
2026-05-07 12:48 50.09778 6.61802 39024 ft 496 kts 131°
2026-05-07 12:49 50.05338 6.70010 39030 ft 496 kts 131°
2026-05-07 12:49 50.00886 6.78208 39033 ft 496 kts 131°
2026-05-07 12:50 49.96420 6.86397 39023 ft 496 kts 132°
2026-05-07 12:50 49.91949 6.94570 39026 ft 497 kts 132°
2026-05-07 12:51 49.87502 7.02675 39038 ft 497 kts 132°
2026-05-07 12:51 49.83011 7.10835 39027 ft 498 kts 132°
2026-05-07 12:52 49.78509 7.18987 39029 ft 498 kts 132°
2026-05-07 12:52 49.74001 7.27125 39039 ft 498 kts 132°
2026-05-07 12:53 49.69515 7.35199 39042 ft 498 kts 132°
2026-05-07 12:53 49.64996 7.43305 39039 ft 498 kts 132°
2026-05-07 12:54 49.60470 7.51403 39045 ft 498 kts 132°
2026-05-07 12:54 49.55939 7.59484 39045 ft 498 kts 133°
2026-05-07 12:55 49.51430 7.67497 39042 ft 498 kts 133°
2026-05-07 12:55 49.46885 7.75551 39035 ft 498 kts 133°
2026-05-07 12:56 49.42336 7.83587 39030 ft 499 kts 133°
2026-05-07 12:56 49.37773 7.91625 39030 ft 499 kts 133°
2026-05-07 12:57 49.32923 7.99104 39028 ft 498 kts 139°
2026-05-07 12:57 49.27833 8.06241 39024 ft 498 kts 139°
2026-05-07 12:58 49.22731 8.13408 39018 ft 498 kts 140°
2026-05-07 12:58 49.17623 8.20564 39021 ft 498 kts 140°
2026-05-07 12:59 49.12546 8.27658 39025 ft 499 kts 140°
2026-05-07 12:59 49.07418 8.34802 39026 ft 499 kts 140°
2026-05-07 13:00 49.02291 8.41924 39031 ft 499 kts 140°
2026-05-07 13:00 48.97153 8.49039 39023 ft 499 kts 140°
2026-05-07 13:01 48.92045 8.56092 39027 ft 500 kts 140°
2026-05-07 13:01 48.86898 8.63179 39029 ft 500 kts 140°
2026-05-07 13:02 48.81737 8.70266 39027 ft 500 kts 140°
2026-05-07 13:02 48.76583 8.77322 39014 ft 499 kts 140°
2026-05-07 13:03 48.71465 8.84309 39007 ft 499 kts 140°
2026-05-07 13:03 48.66301 8.91336 39005 ft 499 kts 140°
2026-05-07 13:04 48.61138 8.98344 39011 ft 499 kts 140°
2026-05-07 13:04 48.55962 9.05348 39021 ft 500 kts 140°
2026-05-07 13:05 48.50782 9.12339 39016 ft 500 kts 141°
2026-05-07 13:05 48.45627 9.19276 39015 ft 500 kts 141°
2026-05-07 13:06 48.40436 9.26240 39005 ft 500 kts 141°
2026-05-07 13:06 48.35239 9.33194 39007 ft 500 kts 141°
2026-05-07 13:07 48.30037 9.40135 39011 ft 500 kts 141°
2026-05-07 13:07 48.24843 9.47049 39000 ft 500 kts 141°
2026-05-07 13:08 48.19624 9.53835 39017 ft 499 kts 142°
2026-05-07 13:08 48.14349 9.60630 39018 ft 500 kts 142°
2026-05-07 13:09 48.09079 9.67422 39020 ft 500 kts 142°
2026-05-07 13:09 48.03806 9.74207 39024 ft 501 kts 142°
2026-05-07 13:10 47.98563 9.80935 39011 ft 500 kts 142°
2026-05-07 13:10 47.93279 9.87695 39023 ft 500 kts 142°
2026-05-07 13:11 47.88005 9.94471 39023 ft 501 kts 140°
2026-05-07 13:11 47.83266 10.02134 39023 ft 506 kts 130°
2026-05-07 13:12 47.79439 10.10852 39021 ft 508 kts 122°
2026-05-07 13:12 47.75910 10.19965 39002 ft 508 kts 123°
2026-05-07 13:13 47.72338 10.29037 39004 ft 509 kts 123°
2026-05-07 13:13 47.68749 10.38103 39010 ft 510 kts 123°
2026-05-07 13:14 47.65150 10.47165 39011 ft 510 kts 123°
2026-05-07 13:14 47.61564 10.56166 39004 ft 511 kts 123°
2026-05-07 13:15 47.57940 10.65232 39004 ft 511 kts 123°
2026-05-07 13:15 47.54312 10.74276 39004 ft 511 kts 123°
2026-05-07 13:16 47.50676 10.83313 38992 ft 511 kts 123°
2026-05-07 13:16 47.47055 10.92280 38975 ft 511 kts 124°
2026-05-07 13:17 47.43410 11.01274 38975 ft 510 kts 124°
2026-05-07 13:17 47.39757 11.10266 38969 ft 511 kts 124°
2026-05-07 13:18 47.36712 11.17729 38970 ft 511 kts 124°
2026-05-07 13:18 47.33038 11.26716 38956 ft 511 kts 124°
2026-05-07 13:19 47.28765 11.37129 38980 ft 510 kts 124°
2026-05-07 13:19 47.25082 11.46072 38973 ft 511 kts 124°
2026-05-07 13:20 47.22016 11.53495 38956 ft 511 kts 124°
2026-05-07 13:20 47.18319 11.62417 38958 ft 511 kts 124°
2026-05-07 13:21 47.14616 11.71324 38968 ft 511 kts 125°
2026-05-07 13:21 47.10903 11.80233 38968 ft 511 kts 125°
2026-05-07 13:22 47.07299 11.89168 38967 ft 514 kts 120°
2026-05-07 13:22 47.04176 11.98603 38981 ft 515 kts 119°
2026-05-07 13:23 47.01042 12.08026 38974 ft 514 kts 119°
2026-05-07 13:23 46.97886 12.17426 38970 ft 514 kts 119°
2026-05-07 13:24 46.94718 12.26821 39018 ft 515 kts 120°
2026-05-07 13:24 46.91567 12.36137 39001 ft 514 kts 120°
2026-05-07 13:25 46.88387 12.45493 39000 ft 513 kts 120°
2026-05-07 13:25 46.85205 12.54828 38993 ft 513 kts 120°
2026-05-07 13:26 46.82016 12.64147 38984 ft 513 kts 120°
2026-05-07 13:26 46.78842 12.73394 38959 ft 513 kts 120°
2026-05-07 13:27 46.75635 12.82702 38968 ft 514 kts 121°
2026-05-07 13:27 46.72418 12.92001 38977 ft 513 kts 121°
2026-05-07 13:28 46.69202 13.01277 38964 ft 513 kts 121°
2026-05-07 13:28 46.65993 13.10486 38967 ft 514 kts 121°
2026-05-07 13:29 46.62753 13.19759 38983 ft 514 kts 121°
2026-05-07 13:29 46.59502 13.29029 38976 ft 514 kts 121°
2026-05-07 13:30 46.55778 13.37834 38968 ft 510 kts 131°
2026-05-07 13:30 46.51192 13.45623 38978 ft 504 kts 140°
2026-05-07 13:31 46.46265 13.52784 38991 ft 505 kts 139°
2026-05-07 13:31 46.41336 13.60021 38975 ft 504 kts 139°
2026-05-07 13:32 46.36412 13.67239 38972 ft 503 kts 139°
2026-05-07 13:32 46.31493 13.74418 38948 ft 502 kts 140°
2026-05-07 13:33 46.26614 13.81519 38980 ft 498 kts 140°
2026-05-07 13:33 46.21720 13.88602 38945 ft 498 kts 140°
2026-05-07 13:34 46.14372 13.99236 38955 ft 500 kts 140°
2026-05-07 13:35 46.09474 14.06289 38960 ft 501 kts 140°
2026-05-07 13:35 46.04537 14.13381 38981 ft 502 kts 140°
2026-05-07 13:36 45.99590 14.20471 38989 ft 503 kts 140°
2026-05-07 13:36 45.94617 14.27576 38988 ft 504 kts 140°
2026-05-07 13:37 45.89678 14.34618 38971 ft 504 kts 140°
2026-05-07 13:37 45.84708 14.41682 38993 ft 503 kts 140°
2026-05-07 13:38 45.79731 14.48739 38994 ft 503 kts 140°
2026-05-07 13:38 45.74754 14.55777 38989 ft 503 kts 140°
2026-05-07 13:39 45.69808 14.62755 38994 ft 502 kts 141°
2026-05-07 13:39 45.64833 14.69746 38981 ft 500 kts 140°
2026-05-07 13:40 45.59879 14.76687 38946 ft 498 kts 141°
2026-05-07 13:40 45.54926 14.83620 38956 ft 499 kts 141°
2026-05-07 13:41 45.49961 14.90557 38977 ft 500 kts 141°
2026-05-07 13:41 45.45012 14.97450 38987 ft 501 kts 141°
2026-05-07 13:42 45.40012 15.04389 39004 ft 502 kts 141°
2026-05-07 13:42 45.34999 15.11330 38993 ft 503 kts 141°
2026-05-07 13:43 45.29979 15.18266 38995 ft 504 kts 141°
2026-05-07 13:43 45.24951 15.25193 38992 ft 504 kts 141°
2026-05-07 13:44 45.19953 15.32063 38991 ft 504 kts 141°
2026-05-07 13:44 45.14920 15.38962 38994 ft 503 kts 141°
2026-05-07 13:45 45.09895 15.45832 38975 ft 502 kts 141°
2026-05-07 13:45 45.04869 15.52683 38991 ft 501 kts 141°
2026-05-07 13:46 44.99879 15.59465 39000 ft 500 kts 141°
2026-05-07 13:46 44.94859 15.66272 39001 ft 500 kts 141°
2026-05-07 13:47 44.89838 15.73068 38997 ft 501 kts 141°
2026-05-07 13:47 44.84808 15.79857 38968 ft 500 kts 141°
2026-05-07 13:48 44.79807 15.86589 38995 ft 501 kts 141°
2026-05-07 13:48 44.74759 15.93374 38997 ft 502 kts 141°
2026-05-07 13:49 44.69706 16.00145 39009 ft 502 kts 141°
2026-05-07 13:49 44.64623 16.06928 39006 ft 504 kts 141°
2026-05-07 13:50 44.59536 16.13704 39025 ft 505 kts 141°
2026-05-07 13:50 44.54466 16.20443 39040 ft 506 kts 141°
2026-05-07 13:51 44.49354 16.27221 39045 ft 506 kts 141°
2026-05-07 13:51 44.44241 16.33985 39031 ft 505 kts 141°
2026-05-07 13:52 44.39133 16.40723 39056 ft 505 kts 141°
2026-05-07 13:52 44.34049 16.47411 39055 ft 505 kts 141°
2026-05-07 13:53 44.28933 16.54125 39056 ft 505 kts 141°
2026-05-07 13:53 44.23814 16.60825 39042 ft 504 kts 142°
2026-05-07 13:54 44.18716 16.67484 39050 ft 504 kts 141°
2026-05-07 13:54 44.13624 16.74116 39039 ft 504 kts 142°
2026-05-07 13:55 44.08497 16.80780 39046 ft 504 kts 142°
2026-05-07 13:55 44.03364 16.87433 39055 ft 505 kts 142°
2026-05-07 13:56 43.98258 16.94035 39068 ft 506 kts 142°
2026-05-07 13:56 43.93097 17.00692 39083 ft 507 kts 142°
2026-05-07 13:57 43.87927 17.07343 39086 ft 508 kts 142°
2026-05-07 13:57 43.82744 17.13995 39095 ft 508 kts 142°
2026-05-07 13:58 43.77599 17.20582 39105 ft 507 kts 142°
2026-05-07 13:58 43.72416 17.27202 39103 ft 507 kts 142°
2026-05-07 13:59 43.67231 17.33808 39107 ft 507 kts 142°
2026-05-07 13:59 43.62040 17.40403 39074 ft 507 kts 141°
2026-05-07 14:00 43.56852 17.46981 39084 ft 507 kts 142°
2026-05-07 14:00 43.51691 17.53507 39101 ft 507 kts 142°
2026-05-07 14:01 43.46499 17.60056 39102 ft 506 kts 142°
2026-05-07 14:01 43.41300 17.66599 39104 ft 507 kts 142°
2026-05-07 14:02 43.36090 17.73146 39103 ft 507 kts 142°
2026-05-07 14:02 43.30919 17.79633 39112 ft 506 kts 142°
2026-05-07 14:03 43.25706 17.86112 39115 ft 505 kts 143°
2026-05-07 14:03 43.20364 17.92340 39109 ft 504 kts 143°
2026-05-07 14:04 43.15070 17.98621 39095 ft 504 kts 143°
2026-05-07 14:04 43.09767 18.04881 39097 ft 503 kts 143°
2026-05-07 14:05 43.04488 18.11079 39096 ft 503 kts 143°
2026-05-07 14:05 42.99171 18.17301 39093 ft 503 kts 143°
2026-05-07 14:06 42.93846 18.23513 39081 ft 503 kts 143°
2026-05-07 14:06 42.88528 18.29710 39090 ft 503 kts 143°
2026-05-07 14:07 42.83232 18.35864 39091 ft 503 kts 143°
2026-05-07 14:07 42.77902 18.42041 39081 ft 503 kts 143°
2026-05-07 14:08 42.72566 18.48210 39071 ft 504 kts 144°
2026-05-07 14:08 42.67211 18.54385 39068 ft 505 kts 144°
2026-05-07 14:09 42.61880 18.60530 39076 ft 506 kts 144°
2026-05-07 14:09 42.56502 18.66708 39080 ft 507 kts 144°
2026-05-07 14:10 42.51107 18.72885 39083 ft 508 kts 144°
2026-05-07 14:10 42.45712 18.79048 39067 ft 508 kts 144°
2026-05-07 14:11 42.40301 18.85220 39096 ft 509 kts 144°
2026-05-07 14:11 42.34910 18.91355 39101 ft 510 kts 144°
2026-05-07 14:12 42.29469 18.97531 39104 ft 510 kts 144°
2026-05-07 14:12 42.24033 19.03687 39110 ft 510 kts 144°
2026-05-07 14:13 42.18589 19.09834 39082 ft 510 kts 144°
2026-05-07 14:13 42.13177 19.15936 39081 ft 511 kts 144°
2026-05-07 14:14 42.07726 19.22070 39087 ft 511 kts 144°
2026-05-07 14:14 42.02274 19.28187 39079 ft 510 kts 144°
2026-05-07 14:15 41.96818 19.34292 39054 ft 510 kts 144°
2026-05-07 14:15 41.91399 19.40343 39049 ft 510 kts 144°
2026-05-07 14:16 41.85945 19.46420 39046 ft 510 kts 144°
2026-05-07 14:16 41.80474 19.52501 39048 ft 511 kts 144°
2026-05-07 14:17 41.74993 19.58580 39052 ft 512 kts 144°
2026-05-07 14:17 41.69500 19.64658 39038 ft 513 kts 145°
2026-05-07 14:18 41.64022 19.70706 39049 ft 515 kts 145°
2026-05-07 14:18 41.58489 19.76801 39061 ft 516 kts 145°
2026-05-07 14:19 41.52934 19.82906 39067 ft 518 kts 145°
2026-05-07 14:19 41.47360 19.89021 39048 ft 519 kts 145°
2026-05-07 14:20 41.41776 19.95130 39054 ft 520 kts 145°
2026-05-07 14:20 41.36212 20.01201 39065 ft 521 kts 145°
2026-05-07 14:21 41.30594 20.07317 39082 ft 522 kts 145°
2026-05-07 14:21 41.24975 20.13424 39084 ft 522 kts 145°
2026-05-07 14:22 41.19353 20.19518 39055 ft 522 kts 146°
2026-05-07 14:22 41.13754 20.25572 39074 ft 523 kts 146°
2026-05-07 14:23 41.08097 20.31676 39084 ft 525 kts 146°
2026-05-07 14:23 41.02427 20.37782 39109 ft 525 kts 146°
2026-05-07 14:24 40.96757 20.43872 39110 ft 525 kts 146°
2026-05-07 14:24 40.91119 20.49915 39126 ft 526 kts 145°
2026-05-07 14:25 40.85423 20.56006 39124 ft 528 kts 146°
2026-05-07 14:25 40.79708 20.62104 39155 ft 527 kts 146°
2026-05-07 14:26 40.74013 20.68164 39153 ft 526 kts 146°
2026-05-07 14:26 40.68356 20.74170 39107 ft 525 kts 146°
2026-05-07 14:27 40.62673 20.80192 39098 ft 524 kts 146°
2026-05-07 14:27 40.56994 20.86195 39099 ft 523 kts 145°
2026-05-07 14:28 40.51329 20.92179 39105 ft 522 kts 146°
2026-05-07 14:28 40.45669 20.98170 39092 ft 523 kts 144°
2026-05-07 14:29 40.40100 21.04261 39124 ft 530 kts 144°
2026-05-07 14:29 40.34429 21.10486 39125 ft 531 kts 144°
2026-05-07 14:30 40.28762 21.16681 39127 ft 529 kts 144°
2026-05-07 14:30 40.23128 21.22822 39131 ft 527 kts 144°
2026-05-07 14:31 40.17472 21.28967 39097 ft 532 kts 145°
2026-05-07 14:31 40.11747 21.35167 39179 ft 544 kts 144°
2026-05-07 14:32 40.05987 21.41405 39113 ft 532 kts 145°
2026-05-07 14:32 40.00280 21.47557 39112 ft 533 kts 145°
2026-05-07 14:33 39.94561 21.53705 39107 ft 533 kts 145°
2026-05-07 14:33 39.88846 21.59837 39105 ft 539 kts 145°
2026-05-07 14:34 39.83060 21.66035 39104 ft 538 kts 145°
2026-05-07 14:34 39.77278 21.72214 39091 ft 538 kts 145°
2026-05-07 14:35 39.71502 21.78372 39087 ft 537 kts 146°
2026-05-07 14:35 39.65768 21.84471 39065 ft 536 kts 146°
2026-05-07 14:36 39.59986 21.90603 39048 ft 538 kts 146°
2026-05-07 14:36 39.54181 21.96750 39057 ft 540 kts 146°
2026-05-07 14:37 39.48350 22.02912 39071 ft 541 kts 146°
2026-05-07 14:37 39.39611 22.12120 39067 ft 544 kts 146°
2026-05-07 14:38 39.33708 22.18322 39083 ft 548 kts 146°
2026-05-07 14:38 39.27785 22.24531 39100 ft 550 kts 146°
2026-05-07 14:39 39.21834 22.30756 39113 ft 551 kts 146°
2026-05-07 14:39 39.15905 22.36946 39119 ft 552 kts 146°
2026-05-07 14:40 39.09925 22.43173 39051 ft 555 kts 146°
2026-05-07 14:40 39.03876 22.49454 39094 ft 557 kts 146°
2026-05-07 14:41 38.97864 22.55690 39096 ft 556 kts 146°
2026-05-07 14:41 38.91832 22.61930 39095 ft 557 kts 146°
2026-05-07 14:42 38.85839 22.68116 39079 ft 557 kts 146°
2026-05-07 14:42 38.79701 22.74425 39093 ft 572 kts 146°
2026-05-07 14:43 38.73544 22.80752 39097 ft 562 kts 146°
2026-05-07 14:43 38.67481 22.86973 39089 ft 559 kts 146°
2026-05-07 14:44 38.61392 22.93197 39086 ft 561 kts 146°
2026-05-07 14:44 38.55306 22.99405 39089 ft 569 kts 146°
2026-05-07 14:45 38.49072 23.05750 39090 ft 572 kts 146°
2026-05-07 14:45 38.42853 23.12071 39097 ft 571 kts 146°
2026-05-07 14:46 38.36697 23.18313 39094 ft 569 kts 146°
2026-05-07 14:46 38.30501 23.24577 39092 ft 569 kts 146°
2026-05-07 14:47 38.24298 23.30836 39087 ft 569 kts 146°
2026-05-07 14:47 38.18095 23.37078 39088 ft 568 kts 146°
2026-05-07 14:48 38.11898 23.43303 39093 ft 568 kts 146°
2026-05-07 14:48 38.05715 23.49501 39147 ft 566 kts 146°
2026-05-07 14:49 37.99558 23.55657 39085 ft 568 kts 146°
2026-05-07 14:49 37.93342 23.61858 39084 ft 569 kts 146°
2026-05-07 14:50 37.87108 23.68063 39097 ft 571 kts 146°
2026-05-07 14:50 37.80851 23.74280 39118 ft 573 kts 146°
2026-05-07 14:51 37.74573 23.80503 39106 ft 574 kts 146°
2026-05-07 14:51 37.68321 23.86685 39109 ft 576 kts 146°
2026-05-07 14:52 37.61997 23.92925 39120 ft 578 kts 146°
2026-05-07 14:52 37.55656 23.99168 39137 ft 579 kts 146°
2026-05-07 14:53 37.49307 24.05406 39142 ft 579 kts 146°
2026-05-07 14:53 37.42980 24.11609 39129 ft 580 kts 146°
2026-05-07 14:54 37.36602 24.17847 39132 ft 581 kts 146°
2026-05-07 14:54 37.30224 24.24071 39132 ft 581 kts 146°
2026-05-07 14:55 37.23835 24.30292 39128 ft 581 kts 146°
2026-05-07 14:55 37.17493 24.36454 39098 ft 581 kts 146°
2026-05-07 14:56 37.11090 24.42662 39126 ft 582 kts 146°
2026-05-07 14:56 37.04682 24.48862 39134 ft 582 kts 146°
2026-05-07 14:57 36.98268 24.55052 39135 ft 582 kts 146°
2026-05-07 14:57 36.91892 24.61193 39108 ft 583 kts 146°
2026-05-07 14:58 36.85464 24.67371 39112 ft 584 kts 146°
2026-05-07 14:58 36.79014 24.73556 39121 ft 585 kts 146°
2026-05-07 14:59 36.72549 24.79742 39132 ft 586 kts 146°
2026-05-07 14:59 36.66072 24.85926 39140 ft 587 kts 146°
2026-05-07 15:00 36.59635 24.92061 39146 ft 587 kts 146°
2026-05-07 15:00 36.53148 24.98228 39139 ft 587 kts 146°
2026-05-07 15:01 36.46659 25.04382 39141 ft 587 kts 146°
2026-05-07 15:01 36.40206 25.10490 39131 ft 587 kts 146°
2026-05-07 15:02 36.33719 25.16616 39135 ft 586 kts 145°
2026-05-07 15:02 36.27223 25.22740 39133 ft 587 kts 145°
2026-05-07 15:03 36.20722 25.28854 39135 ft 587 kts 145°
2026-05-07 15:03 36.14216 25.34959 39123 ft 587 kts 145°
2026-05-07 15:04 36.07752 25.41013 39121 ft 587 kts 145°
2026-05-07 15:04 36.01240 25.47098 39128 ft 587 kts 145°
2026-05-07 15:05 35.94726 25.53172 39128 ft 587 kts 145°
2026-05-07 15:05 35.88213 25.59232 39121 ft 587 kts 145°
2026-05-07 15:06 35.81734 25.65249 39138 ft 587 kts 145°
2026-05-07 15:06 35.75196 25.71307 39118 ft 587 kts 145°
2026-05-07 15:07 35.68668 25.77344 39124 ft 587 kts 145°
2026-05-07 15:07 35.62132 25.83375 39122 ft 588 kts 145°
2026-05-07 15:08 35.55588 25.89401 39124 ft 588 kts 145°
2026-05-07 15:08 35.49092 25.95370 39142 ft 588 kts 145°
2026-05-07 15:09 35.42540 26.01378 39135 ft 588 kts 145°
2026-05-07 15:09 35.35989 26.07373 39131 ft 587 kts 145°
2026-05-07 15:10 35.29439 26.13354 39129 ft 587 kts 145°
2026-05-07 15:10 35.22933 26.19283 39129 ft 587 kts 145°
2026-05-07 15:11 35.16393 26.25230 39123 ft 586 kts 145°
2026-05-07 15:11 35.09854 26.31168 39126 ft 586 kts 145°
2026-05-07 15:12 35.03308 26.37096 39126 ft 586 kts 145°
2026-05-07 15:12 34.96800 26.42977 39133 ft 586 kts 145°
2026-05-07 15:13 34.90245 26.48889 39126 ft 587 kts 145°
2026-05-07 15:13 34.83677 26.54802 39142 ft 587 kts 145°
2026-05-07 15:14 34.77099 26.60712 39149 ft 588 kts 145°
2026-05-07 15:14 34.70565 26.66570 39152 ft 588 kts 145°
2026-05-07 15:15 34.63974 26.72468 39155 ft 588 kts 145°
2026-05-07 15:15 34.57379 26.78356 39157 ft 588 kts 144°
2026-05-07 15:16 34.50789 26.84229 39159 ft 588 kts 144°
2026-05-07 15:16 34.44243 26.90051 39168 ft 587 kts 145°
2026-05-07 15:17 34.37662 26.95892 39159 ft 587 kts 145°
2026-05-07 15:17 34.31080 27.01723 39147 ft 586 kts 144°
2026-05-07 15:18 34.24501 27.07540 39146 ft 586 kts 144°
2026-05-07 15:18 34.17969 27.13308 39142 ft 585 kts 144°
2026-05-07 15:19 34.11389 27.19108 39165 ft 585 kts 144°
2026-05-07 15:19 34.04823 27.24886 39156 ft 584 kts 144°
2026-05-07 15:20 33.98254 27.30614 39146 ft 583 kts 147°
2026-05-07 15:20 33.91250 27.35463 39142 ft 579 kts 158°
2026-05-07 15:21 33.83923 27.39293 39134 ft 578 kts 159°
2026-05-07 15:21 33.76561 27.43196 39119 ft 578 kts 159°
2026-05-07 15:22 33.69195 27.47099 39133 ft 579 kts 159°
2026-05-07 15:22 33.61826 27.50989 39146 ft 579 kts 159°
2026-05-07 15:23 33.54493 27.54852 39146 ft 580 kts 159°
2026-05-07 15:23 33.47106 27.58736 39135 ft 580 kts 159°
2026-05-07 15:24 33.39716 27.62615 39146 ft 580 kts 159°
2026-05-07 15:24 33.32316 27.66491 39150 ft 581 kts 159°
2026-05-07 15:25 33.24959 27.70337 39148 ft 581 kts 159°
2026-05-07 15:25 33.17556 27.74200 39145 ft 581 kts 159°
2026-05-07 15:26 33.10142 27.78063 39142 ft 581 kts 159°
2026-05-07 15:26 33.02727 27.81918 39137 ft 581 kts 159°
2026-05-07 15:27 32.95312 27.85766 39135 ft 581 kts 159°
2026-05-07 15:27 32.87953 27.89578 39149 ft 581 kts 159°
2026-05-07 15:28 32.80544 27.93409 39144 ft 580 kts 159°
2026-05-07 15:28 32.73136 27.97233 39142 ft 580 kts 159°
2026-05-07 15:29 32.65736 28.01046 39143 ft 580 kts 159°
2026-05-07 15:29 32.58379 28.04829 39141 ft 580 kts 159°
2026-05-07 15:30 32.50972 28.08631 39152 ft 580 kts 159°
2026-05-07 15:30 32.43575 28.12423 39147 ft 579 kts 159°
2026-05-07 15:31 32.36187 28.16201 39130 ft 578 kts 159°
2026-05-07 15:31 32.28813 28.19967 39131 ft 578 kts 159°
2026-05-07 15:32 32.21480 28.23704 39133 ft 578 kts 159°
2026-05-07 15:32 32.14094 28.27462 39132 ft 578 kts 159°
2026-05-07 15:33 32.06708 28.31213 39129 ft 578 kts 159°
2026-05-07 15:33 31.99318 28.34960 39133 ft 578 kts 159°
2026-05-07 15:34 31.91987 28.38670 39150 ft 577 kts 158°
2026-05-07 15:34 31.84609 28.42400 39135 ft 576 kts 158°
2026-05-07 15:35 31.77246 28.46101 39144 ft 575 kts 158°
2026-05-07 15:35 31.69886 28.49790 39137 ft 575 kts 158°
2026-05-07 15:36 31.62583 28.53446 39124 ft 574 kts 158°
2026-05-07 15:36 31.55232 28.57115 39132 ft 573 kts 158°
2026-05-07 15:37 31.47895 28.60765 39124 ft 573 kts 158°
2026-05-07 15:37 31.40593 28.64393 39123 ft 573 kts 158°
2026-05-07 15:38 31.33256 28.68032 39135 ft 573 kts 158°
2026-05-07 15:38 31.25920 28.71665 39131 ft 572 kts 158°
2026-05-07 15:39 31.18603 28.75283 39129 ft 571 kts 158°
2026-05-07 15:39 31.11282 28.78896 39110 ft 571 kts 158°
2026-05-07 15:40 31.04020 28.82474 39117 ft 570 kts 158°
2026-05-07 15:40 30.96718 28.86066 39113 ft 569 kts 158°
2026-05-07 15:41 30.89417 28.89651 39113 ft 570 kts 158°
2026-05-07 15:41 30.82111 28.93233 39107 ft 570 kts 158°
2026-05-07 15:42 30.74851 28.96786 39110 ft 569 kts 158°
2026-05-07 15:42 30.67573 29.00343 39131 ft 567 kts 158°
2026-05-07 15:43 30.60303 29.03890 39113 ft 566 kts 158°
2026-05-07 15:43 30.53129 29.07626 39108 ft 565 kts 150°
2026-05-07 15:44 30.46747 29.12882 39095 ft 562 kts 135°
2026-05-07 15:44 30.41345 29.19286 39092 ft 558 kts 131°
2026-05-07 15:45 30.35961 29.25757 39088 ft 558 kts 131°
2026-05-07 15:45 30.30562 29.32202 39083 ft 557 kts 131°
2026-05-07 15:46 30.22487 29.41841 39072 ft 556 kts 131°
2026-05-07 15:47 30.17145 29.48211 39065 ft 555 kts 131°
2026-05-07 15:47 30.11764 29.54615 39074 ft 555 kts 131°
2026-05-07 15:48 30.06388 29.61001 39074 ft 553 kts 131°
2026-05-07 15:48 30.01027 29.67360 39067 ft 553 kts 131°
2026-05-07 15:49 29.95697 29.73671 39055 ft 552 kts 131°
2026-05-07 15:49 29.90339 29.80006 39049 ft 552 kts 131°
2026-05-07 15:50 29.84978 29.86334 39073 ft 551 kts 131°
2026-05-07 15:50 29.79620 29.92646 39064 ft 550 kts 131°
2026-05-07 15:51 29.74307 29.98894 39051 ft 550 kts 131°
2026-05-07 15:51 29.68961 30.05171 39049 ft 549 kts 131°
2026-05-07 15:52 29.63608 30.11446 39064 ft 549 kts 131°
2026-05-07 15:52 29.58264 30.17701 39061 ft 548 kts 132°
2026-05-07 15:53 29.52969 30.23888 39054 ft 547 kts 132°
2026-05-07 15:53 29.47632 30.30116 39050 ft 547 kts 132°
2026-05-07 15:54 29.42303 30.36325 39043 ft 546 kts 132°
2026-05-07 15:54 29.37027 30.42499 39064 ft 544 kts 131°
2026-05-07 15:55 29.31809 30.48757 39061 ft 543 kts 131°
2026-05-07 15:55 29.26592 30.55000 39049 ft 542 kts 131°
2026-05-07 15:56 29.21366 30.61224 39043 ft 541 kts 131°
2026-05-07 15:56 29.16147 30.67426 39038 ft 541 kts 131°
2026-05-07 15:57 29.10967 30.73573 39037 ft 540 kts 131°
2026-05-07 15:57 29.05745 30.79761 39036 ft 540 kts 131°
2026-05-07 15:58 29.00536 30.85922 39046 ft 538 kts 132°
2026-05-07 15:58 28.95333 30.92069 39040 ft 538 kts 132°
2026-05-07 15:59 28.90166 30.98163 39058 ft 537 kts 132°
2026-05-07 15:59 28.84967 31.04284 39053 ft 537 kts 132°
2026-05-07 16:00 28.79767 31.10398 39047 ft 537 kts 132°
2026-05-07 16:00 28.74569 31.16501 39048 ft 536 kts 132°
2026-05-07 16:01 28.69401 31.22560 39048 ft 536 kts 132°
2026-05-07 16:01 28.64376 31.28840 39034 ft 537 kts 129°
2026-05-07 16:02 28.59407 31.35185 39034 ft 538 kts 130°
2026-05-07 16:02 28.54390 31.41515 39038 ft 539 kts 130°
2026-05-07 16:03 28.50206 31.46768 39045 ft 539 kts 130°
2026-05-07 16:03 28.44349 31.54110 39052 ft 540 kts 131°
2026-05-07 16:04 28.39304 31.60421 39045 ft 539 kts 131°
2026-05-07 16:04 28.34260 31.66724 39035 ft 539 kts 131°
2026-05-07 16:05 28.30083 31.71936 39023 ft 538 kts 131°
2026-05-07 16:05 28.24224 31.79235 39018 ft 538 kts 131°
2026-05-07 16:06 28.19184 31.85504 39016 ft 537 kts 132°
2026-05-07 16:06 28.15001 31.90700 39014 ft 537 kts 132°
2026-05-07 16:07 28.09961 31.96951 39010 ft 537 kts 132°
2026-05-07 16:07 28.04225 32.04316 39010 ft 537 kts 126°
2026-05-07 16:08 28.00844 32.10254 39014 ft 535 kts 117°
2026-05-07 16:08 27.97346 32.17616 39012 ft 535 kts 117°
2026-05-07 16:09 27.93783 32.25002 38986 ft 534 kts 117°
2026-05-07 16:09 27.90222 32.32368 38951 ft 534 kts 117°
2026-05-07 16:10 27.86686 32.39676 38966 ft 534 kts 118°
2026-05-07 16:10 27.83160 32.46951 38957 ft 534 kts 118°
2026-05-07 16:11 27.79587 32.54310 38952 ft 534 kts 118°
2026-05-07 16:11 27.76012 32.61660 38958 ft 534 kts 118°
2026-05-07 16:12 27.72434 32.69004 38974 ft 533 kts 118°
2026-05-07 16:12 27.68885 32.76276 38963 ft 532 kts 118°
2026-05-07 16:13 27.65310 32.83589 38948 ft 532 kts 118°
2026-05-07 16:13 27.61740 32.90880 38952 ft 531 kts 119°
2026-05-07 16:14 27.58168 32.98161 38945 ft 530 kts 119°
2026-05-07 16:14 27.54598 33.05426 38939 ft 529 kts 119°
2026-05-07 16:15 27.51059 33.12616 38931 ft 529 kts 119°
2026-05-07 16:15 27.47490 33.19854 38933 ft 528 kts 120°
2026-05-07 16:16 27.43924 33.27074 38931 ft 527 kts 120°
2026-05-07 16:16 27.40380 33.34236 38927 ft 527 kts 120°
2026-05-07 16:17 27.36813 33.41438 38916 ft 527 kts 120°
2026-05-07 16:17 27.33243 33.48625 38899 ft 526 kts 120°
2026-05-07 16:18 27.29672 33.55806 38898 ft 526 kts 120°
2026-05-07 16:18 27.26092 33.62991 38901 ft 527 kts 120°
2026-05-07 16:19 27.22530 33.70132 38926 ft 527 kts 121°
2026-05-07 16:19 27.18942 33.77310 38922 ft 526 kts 120°
2026-05-07 16:20 27.15931 33.84798 38912 ft 527 kts 112°
2026-05-07 16:20 27.13239 33.92440 38910 ft 526 kts 112°
2026-05-07 16:21 27.10539 34.00017 38908 ft 526 kts 113°
2026-05-07 16:21 27.07822 34.07632 38899 ft 525 kts 113°
2026-05-07 16:22 27.05105 34.15236 38887 ft 525 kts 113°
2026-05-07 16:22 27.02384 34.22838 38880 ft 525 kts 114°
2026-05-07 16:23 26.99663 34.30420 38890 ft 524 kts 114°
2026-05-07 16:23 26.96955 34.37950 38885 ft 524 kts 114°
2026-05-07 16:24 26.94225 34.45527 38885 ft 524 kts 114°
2026-05-07 16:24 26.91496 34.53089 38884 ft 523 kts 115°
2026-05-07 16:25 26.88761 34.60648 38883 ft 523 kts 115°
2026-05-07 16:25 26.86024 34.68201 38883 ft 523 kts 115°
2026-05-07 16:26 26.83304 34.75693 38881 ft 523 kts 115°
2026-05-07 16:26 26.80560 34.83232 38886 ft 523 kts 115°
2026-05-07 16:27 26.77815 34.90763 38882 ft 522 kts 115°
2026-05-07 16:27 26.75086 34.98236 38881 ft 522 kts 115°
2026-05-07 16:28 26.72339 35.05752 38878 ft 522 kts 116°
2026-05-07 16:28 26.69589 35.13258 38877 ft 522 kts 116°
2026-05-07 16:29 26.66834 35.20768 38879 ft 522 kts 116°
2026-05-07 16:29 26.64092 35.28225 38877 ft 522 kts 116°
2026-05-07 16:30 26.61327 35.35730 38875 ft 522 kts 116°
2026-05-07 16:30 26.58557 35.43234 38881 ft 522 kts 116°
2026-05-07 16:31 26.55781 35.50727 38873 ft 522 kts 117°
2026-05-07 16:31 26.52931 35.58184 38881 ft 522 kts 118°
2026-05-07 16:32 26.50092 35.65585 38887 ft 522 kts 118°
2026-05-07 16:32 26.47238 35.73037 38889 ft 522 kts 118°
2026-05-07 16:33 26.44388 35.80473 38870 ft 521 kts 118°
2026-05-07 16:33 26.41532 35.87905 38878 ft 521 kts 118°
2026-05-07 16:34 26.38691 35.95287 38873 ft 521 kts 118°
2026-05-07 16:34 26.35829 36.02712 38874 ft 522 kts 119°
2026-05-07 16:35 26.32957 36.10146 38890 ft 522 kts 119°
2026-05-07 16:35 26.30081 36.17580 38891 ft 522 kts 119°
2026-05-07 16:36 26.27203 36.25004 38880 ft 522 kts 119°
2026-05-07 16:36 26.24344 36.32366 38888 ft 521 kts 119°
2026-05-07 16:37 26.21464 36.39768 38887 ft 521 kts 119°
2026-05-07 16:37 26.18580 36.47167 38884 ft 520 kts 120°
2026-05-07 16:38 26.15283 36.54205 38889 ft 514 kts 125°
2026-05-07 16:38 26.11846 36.61177 38892 ft 514 kts 125°
2026-05-07 16:39 26.08410 36.68159 38894 ft 514 kts 125°
2026-05-07 16:39 26.04976 36.75117 38866 ft 513 kts 125°
2026-05-07 16:40 26.01563 36.82018 38901 ft 512 kts 126°
2026-05-07 16:40 25.98133 36.88942 38900 ft 511 kts 126°
2026-05-07 16:41 25.94698 36.95864 38896 ft 511 kts 126°
2026-05-07 16:41 25.91266 37.02775 38888 ft 510 kts 126°
2026-05-07 16:42 25.87834 37.09668 38883 ft 510 kts 126°
2026-05-07 16:42 25.84430 37.16499 38879 ft 509 kts 126°
2026-05-07 16:43 25.80994 37.23381 38876 ft 509 kts 126°
2026-05-07 16:43 25.77567 37.30257 38873 ft 509 kts 127°
2026-05-07 16:44 25.74148 37.37132 38884 ft 509 kts 127°
2026-05-07 16:44 25.70746 37.43960 38884 ft 509 kts 127°
2026-05-07 16:45 25.67317 37.50832 38875 ft 509 kts 128°
2026-05-07 16:45 25.63875 37.57713 38884 ft 511 kts 128°
2026-05-07 16:46 25.60425 37.64599 38885 ft 512 kts 128°
2026-05-07 16:46 25.56959 37.71508 38895 ft 514 kts 128°
2026-05-07 16:47 25.53507 37.78381 38899 ft 514 kts 128°
2026-05-07 16:47 25.50040 37.85275 38892 ft 515 kts 128°
2026-05-07 16:48 25.46552 37.92199 38883 ft 515 kts 128°
2026-05-07 16:48 25.43063 37.99113 38889 ft 514 kts 129°
2026-05-07 16:49 25.39575 38.06014 38878 ft 514 kts 129°
2026-05-07 16:49 25.36117 38.12848 38872 ft 513 kts 129°
2026-05-07 16:50 25.32655 38.19720 38827 ft 511 kts 129°
2026-05-07 16:50 25.29172 38.26557 38853 ft 510 kts 129°
2026-05-07 16:51 25.25694 38.33383 38860 ft 510 kts 129°
2026-05-07 16:51 25.22230 38.40184 38870 ft 511 kts 129°
2026-05-07 16:52 25.18749 38.47033 38867 ft 511 kts 129°
2026-05-07 16:52 25.15255 38.53863 38869 ft 511 kts 129°
2026-05-07 16:53 25.11755 38.60689 38862 ft 511 kts 129°
2026-05-07 16:53 25.08276 38.67467 38865 ft 510 kts 130°
2026-05-07 16:54 25.04785 38.74274 38866 ft 509 kts 130°
2026-05-07 16:54 25.01291 38.81066 38872 ft 509 kts 130°
2026-05-07 16:55 24.97789 38.87841 38884 ft 508 kts 130°
2026-05-07 16:55 24.94305 38.94599 38877 ft 507 kts 130°
2026-05-07 16:56 24.90838 39.01304 38877 ft 507 kts 130°
2026-05-07 16:56 24.85595 39.11416 38877 ft 507 kts 130°
2026-05-07 16:57 24.82102 39.18150 38885 ft 506 kts 130°
2026-05-07 16:57 24.78610 39.24868 38889 ft 506 kts 130°
2026-05-07 16:58 24.75137 39.31545 38891 ft 506 kts 131°
2026-05-07 16:58 24.71635 39.38264 38905 ft 505 kts 131°
2026-05-07 16:59 24.68141 39.44964 38906 ft 505 kts 131°
2026-05-07 16:59 24.64644 39.51655 38908 ft 505 kts 131°
2026-05-07 17:00 24.61164 39.58293 38843 ft 504 kts 129°
2026-05-07 17:00 24.59418 39.61650 38697 ft 508 kts 131°
2026-05-07 17:00 24.57668 39.65039 38933 ft 515 kts 128°
2026-05-07 17:01 24.56148 39.68669 38917 ft 528 kts 121°
2026-05-07 17:01 24.54988 39.72526 38915 ft 536 kts 114°
2026-05-07 17:01 24.53757 39.80723 38884 ft 552 kts 104°
2026-05-07 17:02 24.52993 39.89034 38919 ft 550 kts 105°
2026-05-07 17:02 24.52184 39.97381 38924 ft 549 kts 105°
2026-05-07 17:03 24.51372 40.05716 38931 ft 549 kts 105°
2026-05-07 17:03 24.50558 40.14042 38942 ft 548 kts 105°
2026-05-07 17:04 24.49740 40.22360 38938 ft 548 kts 105°
2026-05-07 17:04 24.48924 40.30621 38935 ft 547 kts 105°
2026-05-07 17:05 24.48100 40.38915 38943 ft 547 kts 105°
2026-05-07 17:05 24.47271 40.47212 38940 ft 547 kts 105°
2026-05-07 17:06 24.46438 40.55499 38944 ft 546 kts 105°
2026-05-07 17:06 24.45608 40.63713 38949 ft 545 kts 105°
2026-05-07 17:07 24.44765 40.71987 38972 ft 545 kts 105°
2026-05-07 17:07 24.43917 40.80263 38953 ft 546 kts 105°
2026-05-07 17:08 24.43064 40.88550 38952 ft 546 kts 105°
2026-05-07 17:08 24.42214 40.96772 38967 ft 545 kts 105°
2026-05-07 17:09 24.41354 41.05038 38972 ft 545 kts 105°
2026-05-07 17:09 24.40491 41.13295 38968 ft 545 kts 105°
2026-05-07 17:10 24.39625 41.21554 38992 ft 544 kts 105°
2026-05-07 17:10 24.38760 41.29747 38993 ft 544 kts 105°
2026-05-07 17:11 24.37887 41.37982 39022 ft 543 kts 105°
2026-05-07 17:11 24.37008 41.46223 39017 ft 543 kts 105°
2026-05-07 17:12 24.36126 41.54453 39021 ft 543 kts 105°
2026-05-07 17:12 24.35245 41.62625 39019 ft 543 kts 105°
2026-05-07 17:13 24.34356 41.70841 39020 ft 542 kts 105°
2026-05-07 17:13 24.33461 41.79054 39004 ft 542 kts 105°
2026-05-07 17:14 24.31916 41.87012 39019 ft 528 kts 116°
2026-05-07 17:14 24.29865 41.94691 39021 ft 529 kts 115°
2026-05-07 17:15 24.27836 42.02430 39011 ft 529 kts 115°
2026-05-07 17:15 24.25795 42.10183 39011 ft 529 kts 115°
2026-05-07 17:16 24.23751 42.17918 39015 ft 529 kts 115°
2026-05-07 17:16 24.21698 42.25665 39002 ft 530 kts 115°
2026-05-07 17:17 24.19653 42.33369 39010 ft 531 kts 115°
2026-05-07 17:17 24.17586 42.41137 39000 ft 532 kts 115°
2026-05-07 17:18 24.15512 42.48911 39013 ft 533 kts 115°
2026-05-07 17:18 24.13430 42.56703 39027 ft 534 kts 115°
2026-05-07 17:19 24.11355 42.64449 39042 ft 533 kts 114°
2026-05-07 17:19 24.09265 42.72240 39041 ft 533 kts 114°
2026-05-07 17:20 24.07172 42.80017 39042 ft 533 kts 114°
2026-05-07 17:20 24.05074 42.87798 39040 ft 533 kts 114°
2026-05-07 17:21 24.02973 42.95570 39039 ft 533 kts 114°
2026-05-07 17:21 24.00883 43.03284 39073 ft 532 kts 115°
2026-05-07 17:22 23.98782 43.11027 39064 ft 531 kts 115°
2026-05-07 17:22 23.96677 43.18763 39058 ft 530 kts 115°
2026-05-07 17:23 23.94571 43.26486 39045 ft 529 kts 115°
2026-05-07 17:23 23.92479 43.34145 39040 ft 529 kts 115°
2026-05-07 17:24 23.90369 43.41848 39036 ft 529 kts 115°
2026-05-07 17:24 23.88257 43.49541 39025 ft 528 kts 115°
2026-05-07 17:25 23.86146 43.57216 39012 ft 528 kts 115°
2026-05-07 17:25 23.84045 43.64838 38995 ft 527 kts 115°
2026-05-07 17:26 23.81928 43.72505 38992 ft 527 kts 115°
2026-05-07 17:26 23.79807 43.80167 38979 ft 527 kts 115°
2026-05-07 17:27 23.77798 43.87872 38983 ft 531 kts 109°
2026-05-07 17:27 23.76864 43.95899 38971 ft 541 kts 101°
2026-05-07 17:28 23.76282 44.04065 38950 ft 540 kts 101°
2026-05-07 17:28 23.75668 44.12220 38958 ft 539 kts 101°
2026-05-07 17:29 23.75053 44.20374 38958 ft 539 kts 101°
2026-05-07 17:29 23.74440 44.28470 38964 ft 538 kts 101°
2026-05-07 17:30 23.73819 44.36613 38965 ft 538 kts 101°
2026-05-07 17:30 23.73195 44.44743 38974 ft 537 kts 101°
2026-05-07 17:31 23.72567 44.52871 38977 ft 537 kts 101°
2026-05-07 17:31 23.71940 44.60936 38974 ft 537 kts 101°
2026-05-07 17:32 23.71305 44.69045 38974 ft 536 kts 101°
2026-05-07 17:32 23.70666 44.77143 38965 ft 535 kts 101°
2026-05-07 17:33 23.70024 44.85225 38967 ft 535 kts 101°
2026-05-07 17:33 23.69377 44.93319 38963 ft 535 kts 101°
2026-05-07 17:34 23.68731 45.01337 38960 ft 535 kts 101°
2026-05-07 17:34 23.68077 45.09411 38972 ft 534 kts 101°
2026-05-07 17:35 23.67419 45.17480 38964 ft 534 kts 101°
2026-05-07 17:35 23.66756 45.25550 38950 ft 534 kts 101°
2026-05-07 17:36 23.66095 45.33568 38947 ft 534 kts 101°
2026-05-07 17:36 23.65424 45.41633 38932 ft 535 kts 101°
2026-05-07 17:37 23.64747 45.49720 38932 ft 535 kts 101°
2026-05-07 17:37 23.64068 45.57801 38935 ft 535 kts 101°
2026-05-07 17:38 23.63385 45.65868 38941 ft 535 kts 101°
2026-05-07 17:38 23.62700 45.73898 38931 ft 535 kts 101°
2026-05-07 17:39 23.62007 45.81965 38931 ft 535 kts 101°
2026-05-07 17:39 23.61310 45.90040 38928 ft 535 kts 101°
2026-05-07 17:40 23.60613 45.98063 38923 ft 535 kts 101°
2026-05-07 17:40 23.59907 46.06143 38937 ft 535 kts 101°
2026-05-07 17:41 23.59197 46.14216 38940 ft 536 kts 101°
2026-05-07 17:41 23.58483 46.22307 38938 ft 537 kts 101°
2026-05-07 17:42 23.57759 46.30405 38949 ft 537 kts 101°
2026-05-07 17:42 23.57039 46.38452 38952 ft 537 kts 101°
2026-05-07 17:43 23.56313 46.46539 38962 ft 537 kts 101°
2026-05-07 17:43 23.55580 46.54630 38964 ft 536 kts 101°
2026-05-07 17:44 23.54844 46.62709 38965 ft 534 kts 101°
2026-05-07 17:44 23.54112 46.70709 38964 ft 534 kts 101°
2026-05-07 17:45 23.53372 46.78750 38953 ft 533 kts 101°
2026-05-07 17:45 23.52627 46.86781 38928 ft 532 kts 101°
2026-05-07 17:46 23.51883 46.94749 38927 ft 532 kts 101°
2026-05-07 17:46 23.51131 47.02764 38910 ft 531 kts 101°
2026-05-07 17:47 23.50378 47.10763 38913 ft 531 kts 101°
2026-05-07 17:47 23.49619 47.18763 38907 ft 530 kts 101°
2026-05-07 17:48 23.48858 47.26757 38895 ft 530 kts 101°
2026-05-07 17:48 23.48097 47.34694 38896 ft 530 kts 101°
2026-05-07 17:49 23.47328 47.42683 38892 ft 530 kts 101°
2026-05-07 17:49 23.46556 47.50659 38885 ft 530 kts 101°
2026-05-07 17:50 23.45779 47.58641 38884 ft 530 kts 101°
2026-05-07 17:50 23.45004 47.66565 38883 ft 530 kts 101°
2026-05-07 17:51 23.44220 47.74536 38886 ft 529 kts 100°
2026-05-07 17:51 23.43433 47.82499 38873 ft 528 kts 100°
2026-05-07 17:52 23.42643 47.90445 38870 ft 528 kts 100°
2026-05-07 17:52 23.41854 47.98337 38863 ft 528 kts 100°
2026-05-07 17:53 23.41057 48.06279 38853 ft 527 kts 100°
2026-05-07 17:53 23.40256 48.14215 38844 ft 527 kts 100°
2026-05-07 17:54 23.39452 48.22148 38843 ft 527 kts 100°
2026-05-07 17:54 23.38651 48.30001 38854 ft 526 kts 100°
2026-05-07 17:55 23.38063 48.37939 38848 ft 527 kts 96°
2026-05-07 17:55 23.37761 48.45912 38844 ft 527 kts 96°
2026-05-07 17:56 23.37439 48.53876 38838 ft 526 kts 96°
2026-05-07 17:56 23.37114 48.61780 38831 ft 526 kts 96°
2026-05-07 17:57 23.36837 48.68439 38831 ft 526 kts 96°
2026-05-07 17:57 23.36449 48.77673 38827 ft 526 kts 96°
2026-05-07 17:58 23.36111 48.85619 38824 ft 525 kts 96°
2026-05-07 17:58 23.35772 48.93503 38822 ft 525 kts 96°
2026-05-07 17:59 23.35427 49.01435 38816 ft 525 kts 96°
2026-05-07 17:59 23.34824 49.09314 38810 ft 521 kts 103°
2026-05-07 18:00 23.33673 49.17093 38810 ft 521 kts 102°
2026-05-07 18:00 23.32572 49.24818 38810 ft 521 kts 102°
2026-05-07 18:01 23.31456 49.32603 38817 ft 521 kts 102°
2026-05-07 18:01 23.30331 49.40389 38818 ft 521 kts 102°
2026-05-07 18:02 23.28635 49.52063 38815 ft 521 kts 102°
2026-05-07 18:03 23.27508 49.59784 38811 ft 521 kts 102°
2026-05-07 18:03 23.26369 49.67567 38815 ft 521 kts 102°
2026-05-07 18:04 23.25227 49.75337 38815 ft 521 kts 102°
2026-05-07 18:04 23.24080 49.83113 38812 ft 521 kts 102°
2026-05-07 18:05 23.22938 49.90833 38814 ft 521 kts 102°
2026-05-07 18:05 23.21783 49.98607 38815 ft 521 kts 102°
2026-05-07 18:06 23.20627 50.06366 38814 ft 520 kts 102°
2026-05-07 18:06 23.19465 50.14136 38815 ft 520 kts 102°
2026-05-07 18:07 23.18308 50.21847 38812 ft 521 kts 102°
2026-05-07 18:07 23.17139 50.29611 38814 ft 521 kts 102°
2026-05-07 18:08 23.15966 50.37377 38816 ft 521 kts 102°
2026-05-07 18:08 23.14790 50.45132 38812 ft 521 kts 102°
2026-05-07 18:09 23.13609 50.52897 38808 ft 521 kts 102°
2026-05-07 18:09 23.12433 50.60601 38812 ft 520 kts 102°
2026-05-07 18:10 23.11245 50.68360 38815 ft 520 kts 102°
2026-05-07 18:10 23.10056 50.76100 38814 ft 520 kts 102°
2026-05-07 18:11 23.08863 50.83843 38813 ft 520 kts 102°
2026-05-07 18:11 23.07674 50.91534 38809 ft 520 kts 102°
2026-05-07 18:12 23.06473 50.99274 38811 ft 520 kts 102°
2026-05-07 18:12 23.05271 51.07001 38807 ft 519 kts 102°
2026-05-07 18:13 23.04065 51.14727 38834 ft 518 kts 102°
2026-05-07 18:13 23.02867 51.22379 38831 ft 517 kts 102°
2026-05-07 18:14 23.01658 51.30071 38825 ft 516 kts 102°
2026-05-07 18:14 23.00447 51.37750 38823 ft 516 kts 102°
2026-05-07 18:15 22.99236 51.45407 38818 ft 515 kts 102°
2026-05-07 18:15 22.98031 51.53008 38811 ft 514 kts 102°
2026-05-07 18:16 22.96814 51.60653 38819 ft 513 kts 102°
2026-05-07 18:16 22.95596 51.68277 38811 ft 513 kts 102°
2026-05-07 18:17 22.94375 51.75898 38805 ft 512 kts 102°
2026-05-07 18:17 22.93159 51.83455 38801 ft 512 kts 102°
2026-05-07 18:18 22.91933 51.91059 38802 ft 511 kts 102°
2026-05-07 18:18 22.90705 51.98652 38802 ft 511 kts 102°
2026-05-07 18:19 22.89471 52.06249 38798 ft 511 kts 102°
2026-05-07 18:19 22.88245 52.13784 38796 ft 511 kts 102°
2026-05-07 18:20 22.87008 52.21359 38795 ft 511 kts 102°
2026-05-07 18:20 22.85766 52.28936 38805 ft 510 kts 102°
2026-05-07 18:21 22.84523 52.36502 38806 ft 509 kts 102°
2026-05-07 18:21 22.83290 52.44002 38807 ft 509 kts 102°
2026-05-07 18:22 22.82373 52.51613 38800 ft 511 kts 94°
2026-05-07 18:22 22.82208 52.59313 38806 ft 511 kts 93°
2026-05-07 18:23 22.82013 52.66961 38803 ft 511 kts 93°
2026-05-07 18:23 22.81931 52.70085 38801 ft 511 kts 93°
2026-05-07 18:27 22.81744 52.77121 38801 ft 510 kts 93°
2026-05-07 18:27 22.81537 52.84811 38803 ft 510 kts 93°
2026-05-07 18:28 22.81327 52.92504 38798 ft 510 kts 93°
2026-05-07 18:28 22.81114 53.00184 38791 ft 510 kts 93°
2026-05-07 18:29 22.80898 53.07806 38829 ft 509 kts 93°
2026-05-07 18:29 22.80679 53.15467 38821 ft 509 kts 93°
2026-05-07 18:30 22.80455 53.23129 38808 ft 508 kts 93°
2026-05-07 18:30 22.80227 53.30781 38808 ft 508 kts 93°
2026-05-07 18:31 22.79998 53.38378 38809 ft 508 kts 93°
2026-05-07 18:31 22.79764 53.46025 38806 ft 508 kts 93°
2026-05-07 18:32 22.79525 53.53661 38806 ft 507 kts 93°
2026-05-07 18:32 22.79284 53.61302 38806 ft 507 kts 93°
2026-05-07 18:33 22.79041 53.68888 38803 ft 507 kts 93°
2026-05-07 18:33 22.78792 53.76525 38802 ft 507 kts 93°
2026-05-07 18:34 22.78540 53.84149 38805 ft 507 kts 93°
2026-05-07 18:34 22.78286 53.91779 38822 ft 506 kts 93°
2026-05-07 18:35 22.78336 53.99405 38822 ft 507 kts 85°
2026-05-07 18:35 22.79532 54.06891 38808 ft 508 kts 78°
2026-05-07 18:36 22.81065 54.14355 38807 ft 508 kts 78°
2026-05-07 18:36 22.82573 54.21821 38809 ft 507 kts 78°
2026-05-07 18:37 22.84084 54.29294 38815 ft 507 kts 78°
2026-05-07 18:37 22.85583 54.36709 38808 ft 507 kts 78°
2026-05-07 18:38 22.87087 54.44173 38809 ft 507 kts 78°
2026-05-07 18:38 22.88588 54.51641 38796 ft 507 kts 78°
2026-05-07 18:39 22.90075 54.59053 38797 ft 507 kts 78°
2026-05-07 18:39 22.91567 54.66516 38795 ft 507 kts 78°
2026-05-07 18:40 22.93059 54.73995 38800 ft 507 kts 78°
2026-05-07 18:40 22.94546 54.81466 38796 ft 507 kts 78°
2026-05-07 18:41 22.96032 54.88950 38801 ft 507 kts 78°
2026-05-07 18:41 22.97504 54.96387 38811 ft 508 kts 78°
2026-05-07 18:42 22.98984 55.03881 38810 ft 508 kts 79°
2026-05-07 18:42 23.00494 55.11373 38810 ft 509 kts 75°
2026-05-07 18:43 23.03424 55.18282 38820 ft 510 kts 55°
2026-05-07 18:43 23.08279 55.23851 38823 ft 509 kts 36°
2026-05-07 18:44 23.14471 55.27482 38846 ft 507 kts 17°
2026-05-07 18:44 23.21231 55.29501 38839 ft 506 kts 13°
2026-05-07 18:45 23.27982 55.31500 38840 ft 506 kts 13°
2026-05-07 18:45 23.34781 55.33512 38840 ft 506 kts 13°
2026-05-07 18:46 23.41575 55.35520 38838 ft 506 kts 13°
2026-05-07 18:46 23.48349 55.37523 38849 ft 507 kts 13°
2026-05-07 18:47 23.55147 55.39534 38855 ft 507 kts 13°
2026-05-07 18:47 23.61953 55.41548 38858 ft 507 kts 13°
2026-05-07 18:48 23.68759 55.43565 38858 ft 507 kts 13°
2026-05-07 18:48 23.75529 55.45573 38860 ft 507 kts 13°
2026-05-07 18:49 23.82339 55.47595 38868 ft 507 kts 13°
2026-05-07 18:49 23.85733 55.48604 38709 ft 503 kts 13°
2026-05-07 18:49 23.89090 55.49603 38431 ft 497 kts 13°
2026-05-07 18:49 23.92421 55.50593 38006 ft 494 kts 13°
2026-05-07 18:50 23.95740 55.51579 37320 ft 495 kts 13°
2026-05-07 18:50 23.99020 55.52804 36381 ft 502 kts 22°
2026-05-07 18:50 24.02116 55.54621 35344 ft 511 kts 32°
2026-05-07 18:50 24.04964 55.56999 34217 ft 521 kts 41°
2026-05-07 18:51 24.07601 55.59673 33208 ft 524 kts 41°
2026-05-07 18:51 24.10293 55.62351 32432 ft 521 kts 40°
2026-05-07 18:51 24.12963 55.64987 31919 ft 512 kts 40°
2026-05-07 18:51 24.15572 55.67566 31655 ft 499 kts 40°
2026-05-07 18:52 24.18120 55.70091 31127 ft 492 kts 40°
2026-05-07 18:52 24.20666 55.72616 30249 ft 495 kts 40°
2026-05-07 18:52 24.23210 55.75141 29619 ft 491 kts 40°
2026-05-07 18:52 24.25709 55.77623 29125 ft 481 kts 40°
2026-05-07 18:53 24.28145 55.80046 28486 ft 477 kts 40°
2026-05-07 18:53 24.30587 55.82475 27863 ft 472 kts 40°
2026-05-07 18:53 24.33005 55.84882 27226 ft 467 kts 40°
2026-05-07 18:53 24.35409 55.87276 26359 ft 468 kts 41°
2026-05-07 18:54 24.37810 55.89666 25762 ft 463 kts 41°
2026-05-07 18:54 24.40168 55.92015 25364 ft 453 kts 41°
2026-05-07 18:54 24.42483 55.94325 24719 ft 449 kts 41°
2026-05-07 18:54 24.44776 55.96612 23951 ft 450 kts 42°
2026-05-07 18:55 24.47073 55.98903 23475 ft 443 kts 42°
2026-05-07 18:55 24.49335 56.01162 22800 ft 437 kts 42°
2026-05-07 18:55 24.51568 56.03393 22208 ft 430 kts 42°
2026-05-07 18:55 24.53767 56.05591 21604 ft 425 kts 42°
2026-05-07 18:56 24.55936 56.07763 21008 ft 419 kts 42°
2026-05-07 18:56 24.58084 56.09899 20395 ft 414 kts 40°
2026-05-07 18:56 24.60469 56.11616 19810 ft 409 kts 26°
2026-05-07 18:56 24.63125 56.12682 19209 ft 405 kts 14°
2026-05-07 18:57 24.65853 56.13187 18630 ft 401 kts
2026-05-07 18:57 24.68597 56.13661 18036 ft 397 kts 10°
2026-05-07 18:57 24.71305 56.14165 17420 ft 392 kts 10°
2026-05-07 18:57 24.73972 56.14666 16838 ft 386 kts 11°
2026-05-07 18:58 24.76605 56.15149 16278 ft 381 kts
2026-05-07 18:58 24.79244 56.15179 15701 ft 379 kts 354°
2026-05-07 18:58 24.81795 56.14494 15147 ft 377 kts 340°
2026-05-07 18:58 24.84171 56.13306 14568 ft 374 kts 336°
2026-05-07 18:59 24.86530 56.12120 14061 ft 371 kts 337°
2026-05-07 18:59 24.88873 56.10974 13661 ft 368 kts 337°
2026-05-07 18:59 24.91184 56.09848 13101 ft 366 kts 337°
2026-05-07 18:59 24.93460 56.08733 12915 ft 351 kts 336°
2026-05-07 19:00 24.95642 56.07644 12772 ft 337 kts 334°
2026-05-07 19:00 24.97581 56.06284 12656 ft 325 kts 321°
2026-05-07 19:00 24.99186 56.04609 12436 ft 310 kts 310°
2026-05-07 19:00 25.00552 56.02863 12267 ft 293 kts 312°
2026-05-07 19:01 25.01450 56.01755 11914 ft 292 kts 312°
2026-05-07 19:01 25.03257 55.99565 11282 ft 286 kts 311°
2026-05-07 19:01 25.04558 55.97987 11085 ft 279 kts 311°
2026-05-07 19:01 25.05862 55.96399 10857 ft 278 kts 311°
2026-05-07 19:02 25.07148 55.94828 10685 ft 275 kts 311°
2026-05-07 19:02 25.08424 55.93264 10525 ft 275 kts 311°
2026-05-07 19:02 25.09704 55.91694 10300 ft 274 kts 311°
2026-05-07 19:02 25.10542 55.90666 10157 ft 272 kts 311°
2026-05-07 19:03 25.11804 55.89118 9926 ft 269 kts 310°
2026-05-07 19:03 25.13455 55.87090 9622 ft 268 kts 311°
2026-05-07 19:03 25.14699 55.85559 9370 ft 268 kts 311°
2026-05-07 19:03 25.15886 55.83984 9147 ft 267 kts 303°
2026-05-07 19:04 25.16852 55.82235 8919 ft 266 kts 300°
2026-05-07 19:04 25.17808 55.80491 8680 ft 264 kts 301°
2026-05-07 19:04 25.18447 55.79346 8553 ft 264 kts 301°
2026-05-07 19:04 25.19395 55.77656 8496 ft 253 kts 301°
2026-05-07 19:05 25.20302 55.76035 8404 ft 243 kts 301°
2026-05-07 19:05 25.21187 55.74449 8105 ft 244 kts 301°
2026-05-07 19:05 25.22364 55.72332 7743 ft 243 kts 301°
2026-05-07 19:05 25.23249 55.70742 7473 ft 243 kts 301°
2026-05-07 19:06 25.23847 55.69670 7288 ft 243 kts 301°
2026-05-07 19:06 25.25606 55.66525 6838 ft 236 kts 301°
2026-05-07 19:06 25.26459 55.64997 6651 ft 240 kts 301°
2026-05-07 19:07 25.27336 55.63426 6425 ft 239 kts 301°
2026-05-07 19:07 25.28201 55.61871 6221 ft 237 kts 301°
2026-05-07 19:07 25.29054 55.60319 6012 ft 234 kts 296°
2026-05-07 19:07 25.29408 55.58593 5812 ft 235 kts 265°
2026-05-07 19:08 25.28873 55.56916 5604 ft 235 kts 233°
2026-05-07 19:08 25.27619 55.55791 5407 ft 232 kts 208°
2026-05-07 19:08 25.26199 55.54955 5340 ft 228 kts 205°
2026-05-07 19:08 25.24680 55.54651 5335 ft 224 kts 174°
2026-05-07 19:09 25.23281 55.55262 5293 ft 218 kts 143°
2026-05-07 19:09 25.22351 55.56535 4997 ft 208 kts 121°
2026-05-07 19:09 25.21619 55.57928 4343 ft 212 kts 122°
2026-05-07 19:09 25.20851 55.59316 4025 ft 214 kts 123°
2026-05-07 19:10 25.20064 55.60720 3932 ft 215 kts 123°
2026-05-07 19:10 25.19275 55.62125 3840 ft 216 kts 123°
2026-05-07 19:10 25.18485 55.63538 3713 ft 216 kts 123°
2026-05-07 19:10 25.17707 55.64932 3550 ft 216 kts 123°
2026-05-07 19:11 25.16921 55.66344 3361 ft 215 kts 123°
2026-05-07 19:11 25.16137 55.67754 3190 ft 216 kts 123°
2026-05-07 19:11 25.15351 55.69162 2989 ft 216 kts 123°
2026-05-07 19:11 25.14486 55.70500 2774 ft 214 kts 140°
2026-05-07 19:12 25.13182 55.71198 2561 ft 208 kts 176°
2026-05-07 19:12 25.11796 55.70967 2291 ft 200 kts 209°
2026-05-07 19:12 25.10571 55.70236 2051 ft 200 kts 212°
2026-05-07 19:12 25.09495 55.69311 2007 ft 197 kts 238°
2026-05-07 19:13 25.09105 55.67942 2014 ft 180 kts 270°
2026-05-07 19:13 25.09128 55.66587 2014 ft 173 kts 274°
2026-05-07 19:13 25.09451 55.65349 2043 ft 171 kts 294°
2026-05-07 19:13 25.09961 55.64128 2045 ft 184 kts 293°
2026-05-07 19:14 25.10555 55.62860 1998 ft 185 kts 302°
2026-05-07 19:14 25.11241 55.61720 1906 ft 172 kts 303°
2026-05-07 19:14 25.11859 55.60658 1733 ft 160 kts 302°
2026-05-07 19:14 25.12437 55.59623 1561 ft 163 kts 301°
2026-05-07 19:15 25.13056 55.58502 1456 ft 176 kts 301°
2026-05-07 19:15 25.13704 55.57335 1454 ft 180 kts 301°
2026-05-07 19:15 25.14360 55.56150 1454 ft 182 kts 301°
2026-05-07 19:15 25.15022 55.54961 1455 ft 182 kts 301°
2026-05-07 19:16 25.15680 55.53772 1483 ft 181 kts 301°
2026-05-07 19:16 25.16323 55.52610 1610 ft 180 kts 301°
2026-05-07 19:16 25.16974 55.51436 1788 ft 178 kts 301°
2026-05-07 19:16 25.17621 55.50267 1917 ft 179 kts 300°
2026-05-07 19:17 25.18274 55.49089 1920 ft 180 kts 300°
2026-05-07 19:17 25.18925 55.47912 1781 ft 179 kts 301°
2026-05-07 19:17 25.19536 55.46812 1554 ft 158 kts 301°
2026-05-07 19:17 25.20083 55.45819 1346 ft 146 kts 301°
2026-05-07 19:18 25.20601 55.44880 1151 ft 141 kts 300°
2026-05-07 19:18 25.21106 55.43969 979 ft 138 kts 301°
2026-05-07 19:18 25.21607 55.43063 814 ft 139 kts 301°
2026-05-07 19:18 25.22115 55.42145 652 ft 140 kts 301°
2026-05-07 19:19 25.22610 55.41246 470 ft 139 kts 302°
2026-05-07 19:19 25.23118 55.40333 296 ft 140 kts 302°
2026-05-07 19:19 25.23621 55.39423 103 ft 138 kts 302°
2026-05-07 19:19 25.24089 55.38586 34 ft 107 kts 301°
2026-05-07 19:20 25.24391 55.38045 29 ft 82 kts 301°
2026-05-07 19:20 25.24563 55.37713 21 ft 37 kts 292°
2026-05-07 19:20 25.24616 55.37440 21 ft 34 kts 273°
2026-05-07 19:20 25.24618 55.37399 22 ft 0 kts 272°
2026-05-07 19:22 25.24620 55.37350 22 ft 11 kts 272°
2026-05-07 19:22 25.24623 55.37305 23 ft 0 kts 279°
2026-05-07 19:23 25.24625 55.37294 23 ft 0 kts 277°
2026-05-07 19:23 25.24640 55.37232 32 ft 26 kts 292°
2026-05-07 19:23 25.24741 55.37056 29 ft 27 kts 302°
2026-05-07 19:23 25.24826 55.36891 27 ft 24 kts 295°
2026-05-07 19:24 25.24873 55.36728 29 ft 22 kts 286°
2026-05-07 19:24 25.24897 55.36653 29 ft 1 kts 292°
2026-05-07 19:24 25.24911 55.36631 28 ft 7 kts 308°
2026-05-07 19:24 25.24948 55.36568 27 ft 12 kts 300°
2026-05-07 19:25 25.24998 55.36469 31 ft 17 kts 295°
2026-05-07 19:25 25.24980 55.36362 29 ft 14 kts 214°
2026-05-07 19:25 25.24887 55.36303 27 ft 16 kts 214°
2026-05-07 19:25 25.24880 55.36298 27 ft 0 kts 213°